When you browse on this site, cookies collect data to enhance your experience and personalize the content and advertising you see.
Visit our Privacy Policy to learn more. By continuing to use the site, you agree to this use of cookies and data.
  • In Spain
  • List of Countries
  • For 7 days
  • Water Temperature
  • Satellite Maps
  • Weather Map
  • Weather Widgets
  • user-avatar
    Login

    Hourly Weather Solden

    Today, 21 April, Sunday

    Time Temperature Precipitation Wind Pressure Humidity
    00:00 -2°C° 0 mm 1 mps 585 mmHg 63%
    01:00 -2°C° 0 mm 1 mps 585 mmHg 64%
    02:00 -2°C° 0 mm 1 mps 584 mmHg 65%
    03:00 -2°C° 0 mm 1 mps 584 mmHg 66%
    04:00 -3°C° 0 mm 1 mps 584 mmHg 67%
    05:00 -2°C° 0 mm 1 mps 584 mmHg 64%
    06:00 0°C° 0 mm 1 mps 584 mmHg 61%
    07:00 +1°C° 0 mm 1 mps 585 mmHg 58%
    08:00 +3°C° 0 mm 1 mps 585 mmHg 52%
    09:00 +5°C° 0 mm 1 mps 586 mmHg 46%
    10:00 +7°C° 0 mm 1 mps 587 mmHg 39%
    11:00 +8°C° 0 mm 1 mps 587 mmHg 37%
    12:00 +8°C° 0 mm 2 mps 587 mmHg 35%
    13:00 +8°C° 0 mm 2 mps 587 mmHg 32%
    14:00 +8°C° 0 mm 2 mps 586 mmHg 34%
    15:00 +8°C° 0 mm 2 mps 586 mmHg 36%
    16:00 +8°C° 0 mm 2 mps 586 mmHg 38%
    17:00 +6°C° 0 mm 1 mps 584 mmHg 47%
    18:00 +4°C° 0 mm 1 mps 583 mmHg 57%
    19:00 +2°C° 0 mm 1 mps 582 mmHg 66%
    20:00 +1°C° 0 mm 1 mps 582 mmHg 71%
    21:00 0°C° 0 mm 1 mps 581 mmHg 76%
    22:00 -1°C° 0 mm 1 mps 581 mmHg 80%
    23:00 -1°C° 0 mm 1 mps 581 mmHg 82%

    Tomorrow, 22 April, Monday

    Time Temperature Precipitation Wind Pressure Humidity
    00:00 -1°C° 0 mm 1 mps 581 mmHg 85%
    01:00 -1°C° 0 mm 1 mps 581 mmHg 87%
    02:00 -1°C° 0 mm 1 mps 581 mmHg 88%
    03:00 -1°C° 0 mm 1 mps 580 mmHg 89%
    04:00 -2°C° 0 mm 1 mps 580 mmHg 90%
    05:00 -1°C° 0 mm 1 mps 580 mmHg 86%
    06:00 -1°C° 0 mm 0 mps 580 mmHg 82%
    07:00 0°C° 0 mm 0 mps 580 mmHg 78%
    08:00 +3°C° 0 mm 1 mps 581 mmHg 66%
    09:00 +5°C° 0 mm 1 mps 581 mmHg 55%
    10:00 +6°C° 0 mm 2 mps 582 mmHg 43%
    11:00 +7°C° 0 mm 2 mps 582 mmHg 41%
    12:00 +8°C° 0 mm 2 mps 582 mmHg 39%
    13:00 +9°C° 0 mm 2 mps 581 mmHg 36%
    14:00 +8°C° 0 mm 2 mps 581 mmHg 39%
    15:00 +8°C° 0 mm 2 mps 580 mmHg 42%
    16:00 +8°C° 0 mm 2 mps 579 mmHg 46%
    17:00 +6°C° 0 mm 2 mps 578 mmHg 56%
    18:00 +4°C° 0 mm 2 mps 577 mmHg 67%
    19:00 +3°C° 0 mm 1 mps 576 mmHg 77%
    20:00 +2°C° 0 mm 1 mps 576 mmHg 82%
    21:00 +2°C° 0 mm 1 mps 576 mmHg 87%
    22:00 -1°C° 0 mm 2 mps 576 mmHg 91%
    23:00 +1°C° 0.1 mm 1 mps 575 mmHg 91%

    Day after tomorrow, 23 April, Tuesday

    Time Temperature Precipitation Wind Pressure Humidity
    00:00 +1°C° 0.1 mm 1 mps 574 mmHg 91%
    01:00 0°C° 0.1 mm 1 mps 574 mmHg 91%
    02:00 0°C° 0.2 mm 1 mps 573 mmHg 89%
    03:00 0°C° 0.2 mm 1 mps 573 mmHg 87%
    04:00 0°C° 0.2 mm 1 mps 573 mmHg 85%
    05:00 0°C° 0.2 mm 1 mps 573 mmHg 83%
    06:00 +1°C° 0.2 mm 1 mps 573 mmHg 81%
    07:00 +1°C° 0.2 mm 1 mps 573 mmHg 79%
    08:00 +3°C° 0.1 mm 1 mps 573 mmHg 75%
    09:00 +4°C° 0.1 mm 1 mps 574 mmHg 71%
    10:00 +5°C° 0.1 mm 2 mps 575 mmHg 68%
    11:00 +5°C° 0.1 mm 2 mps 575 mmHg 66%
    12:00 +6°C° 0.1 mm 2 mps 575 mmHg 65%
    13:00 +7°C° 0.1 mm 2 mps 576 mmHg 63%
    14:00 +6°C° 0.3 mm 2 mps 575 mmHg 68%
    15:00 +5°C° 0.3 mm 2 mps 575 mmHg 73%
    16:00 +3°C° 0.3 mm 3 mps 574 mmHg 78%
    17:00 +3°C° 0.7 mm 2 mps 574 mmHg 83%
    18:00 +2°C° 0.7 mm 2 mps 574 mmHg 87%
    19:00 +2°C° 0.7 mm 1 mps 574 mmHg 91%
    20:00 +2°C° 0.4 mm 1 mps 574 mmHg 92%
    21:00 +2°C° 0.4 mm 1 mps 574 mmHg 93%
    22:00 +2°C° 0.4 mm 1 mps 575 mmHg 94%
    23:00 +2°C° 0.6 mm 1 mps 575 mmHg 93%

    24 April, Wednesday

    Time Temperature Precipitation Wind Pressure Humidity
    00:00 +1°C° 0.6 mm 1 mps 575 mmHg 93%
    01:00 +1°C° 0.6 mm 1 mps 575 mmHg 93%
    02:00 +1°C° 0.4 mm 1 mps 576 mmHg 94%
    03:00 +1°C° 0.4 mm 1 mps 576 mmHg 94%
    04:00 +1°C° 0.4 mm 1 mps 576 mmHg 95%
    05:00 +1°C° 0.2 mm 1 mps 577 mmHg 92%
    06:00 +2°C° 0.2 mm 1 mps 577 mmHg 90%
    07:00 +2°C° 0.2 mm 1 mps 578 mmHg 88%
    08:00 +2°C° 0.2 mm 2 mps 578 mmHg 85%
    09:00 +3°C° 0.2 mm 2 mps 579 mmHg 82%
    10:00 +3°C° 0.2 mm 3 mps 580 mmHg 79%
    11:00 +4°C° 0.2 mm 3 mps 580 mmHg 76%
    12:00 +4°C° 0.2 mm 3 mps 581 mmHg 72%
    13:00 +5°C° 0.2 mm 3 mps 581 mmHg 69%
    14:00 +5°C° 0.1 mm 3 mps 581 mmHg 70%
    15:00 +5°C° 0.1 mm 3 mps 581 mmHg 70%
    16:00 +5°C° 0.1 mm 3 mps 581 mmHg 71%
    17:00 +4°C° 0.2 mm 3 mps 580 mmHg 77%
    18:00 +3°C° 0.2 mm 3 mps 580 mmHg 83%
    19:00 +3°C° 0.2 mm 2 mps 580 mmHg 89%
    20:00 +2°C° 0.4 mm 2 mps 580 mmHg 91%
    21:00 +2°C° 0.4 mm 2 mps 580 mmHg 94%
    22:00 +1°C° 0.4 mm 2 mps 581 mmHg 97%
    23:00 +1°C° 0.4 mm 2 mps 581 mmHg 97%

    25 April, Thursday

    Time Temperature Precipitation Wind Pressure Humidity
    00:00 +1°C° 0.4 mm 2 mps 581 mmHg 98%
    01:00 +2°C° 0.4 mm 1 mps 581 mmHg 98%
    02:00 +2°C° 0.3 mm 1 mps 581 mmHg 98%
    03:00 +2°C° 0.3 mm 1 mps 581 mmHg 98%
    04:00 +2°C° 0.3 mm 1 mps 581 mmHg 98%
    05:00 +2°C° 0.1 mm 1 mps 582 mmHg 96%
    06:00 +2°C° 0.1 mm 1 mps 582 mmHg 94%
    07:00 +3°C° 0.1 mm 1 mps 582 mmHg 92%
    08:00 +3°C° 0.1 mm 2 mps 582 mmHg 85%
    09:00 +4°C° 0.1 mm 2 mps 583 mmHg 79%
    10:00 +5°C° 0.1 mm 2 mps 583 mmHg 73%
    11:00 +6°C° 0.1 mm 2 mps 584 mmHg 70%
    12:00 +5°C° 0.1 mm 3 mps 584 mmHg 68%
    13:00 +7°C° 0.1 mm 3 mps 584 mmHg 65%
    14:00 +7°C° 0.2 mm 3 mps 584 mmHg 67%
    15:00 +5°C° 0.2 mm 3 mps 583 mmHg 69%
    16:00 +5°C° 0.2 mm 3 mps 583 mmHg 71%
    17:00 +4°C° 0.3 mm 3 mps 582 mmHg 77%
    18:00 +4°C° 0.3 mm 2 mps 582 mmHg 83%
    19:00 +3°C° 0.3 mm 2 mps 581 mmHg 89%
    20:00 +3°C° 0.2 mm 2 mps 581 mmHg 92%
    21:00 +2°C° 0.2 mm 2 mps 581 mmHg 94%
    22:00 +2°C° 0.2 mm 2 mps 581 mmHg 97%
    23:00 +2°C° 0.3 mm 2 mps 581 mmHg 97%

    26 April, Friday

    Time Temperature Precipitation Wind Pressure Humidity
    00:00 +1°C° 0.3 mm 2 mps 581 mmHg 97%
    01:00 +2°C° 0.3 mm 1 mps 581 mmHg 97%
    02:00 +2°C° 0.2 mm 1 mps 581 mmHg 97%
    03:00 +2°C° 0.2 mm 1 mps 581 mmHg 97%
    04:00 +2°C° 0.2 mm 1 mps 581 mmHg 97%
    05:00 +2°C° 0.1 mm 1 mps 581 mmHg 95%
    06:00 +2°C° 0.1 mm 1 mps 582 mmHg 93%
    07:00 +3°C° 0.1 mm 1 mps 582 mmHg 91%
    08:00 +3°C° 0.3 mm 2 mps 583 mmHg 84%
    09:00 +4°C° 0.3 mm 2 mps 584 mmHg 76%
    10:00 +5°C° 0.3 mm 2 mps 585 mmHg 69%
    11:00 +4°C° 0.9 mm 2 mps 585 mmHg 70%
    12:00 +4°C° 0.9 mm 2 mps 585 mmHg 71%
    13:00 +3°C° 0.9 mm 2 mps 584 mmHg 73%
    14:00 +2°C° 0.2 mm 3 mps 584 mmHg 70%
    15:00 +2°C° 0.2 mm 3 mps 584 mmHg 68%
    16:00 +1°C° 0.2 mm 3 mps 584 mmHg 66%
    17:00 0°C° 0 mm 3 mps 584 mmHg 68%
    18:00 -1°C° 0 mm 2 mps 584 mmHg 70%
    19:00 -1°C° 0 mm 2 mps 584 mmHg 72%
    20:00 -2°C° 0 mm 2 mps 584 mmHg 75%
    21:00 -3°C° 0 mm 2 mps 584 mmHg 78%
    22:00 -5°C° 0 mm 2 mps 584 mmHg 81%
    23:00 -5°C° 0 mm 2 mps 583 mmHg 80%
    Show more